User: anonymous   Login
Location: Kailua
(21.4020°N, 157.7390°W)
Time: 10:24:27
(UTC-10:00)
Language:

Cosmos 2221 Rocket - Orbit

View from above orbital plane
View from above orbital plane
View from above satellite
View from above satellite

Ground track
Ground track

The orbit data is extracted from the following two-line orbital elements,

1 22237U 92080B   16273.20170067  .00000148  00000-0  17216-4 0  9991
2 22237  82.5152   0.4941 0019215 343.3303  37.7155 14.78282375284881
Epoch (UTC): 29 September 2016 04:50:26
Eccentricity: 0.0019215
inclination: 82.5152°
perigee height: 621 km
apogee height: 648 km
right ascension of ascending node: 0.4941°
argument of perigee: 343.3303°
revolutions per day: 14.78282375
mean anomaly at epoch: 37.7155°
orbit number at epoch: 28488

The dashed part of the orbit path shows where the satellite is in the earth's shadow,  

DLR